STRATOSAT-TK 1 (RS52S) (57167 NORAD) Tracking and Keplerian Element Data

This shows tracking and keplerian element data for the satellite.

Feedback or suggestion? Click here.




ElementValue
Catalog57167
NameSTRATOSAT-TK 1 (RS52S)
Epoch Orbit7137
Epoch Day286.84442781
Epoch Year2024
RAAN339.9733
Inclination97.5966
Eccentricity0.0014449
Argument of Perigee76.7573
Mean Anonmoly283.5272
Mean Motion15.1912984
Decay Rate0.0003677
L11 57167U 23091B 24286.84442781 .00036770 00000+0 17420-2 0 9999
L22 57167 97.5966 339.9733 0014449 76.7573 283.5272 15.19129840 71371



Live tracking and technical data element details for STRATOSAT-TK 1 (RS52S) (NORAD 57167). STRATOSAT-TK 1 (RS52S) can be tracked NOW for your location showing map with azimuth and elevation plus other details from your city location.







IsCatalogInMostPopularTable: catalog: 57167, numindb: 36
Update: records affected: 1



GetName: 57167 STRATOSAT-TK 1 (RS52S)

Hit Count: updated at: Fri, 24 Jan 2025 22:45:02 GMT